Terminal Aerodrome Forecast
Issued by NWS

Home | Current Version | Previous Version | Text Only | Print | Product List | Glossary On
Versions: 1 2 3 4 5 6 7 8 9 10 11 12
000
FTUS43 KFGF 261126
TAFDVL
TAF
KDVL 261126Z 2612/2712 30011KT P6SM FEW250
     FM261800 31012KT P6SM SCT080
     FM262100 31012KT P6SM VCSH BKN090
     FM270300 VRB06KT P6SM SCT100
      AMD LTD TO CLD VIS AND WIND=

USA.gov is the U.S. government's official web portal to all federal, state and local government web resources and services.